[[{"header":{"parameterUnit":"m.s-1","parameterCategory":1,"la1":30.2991,"la2":30.254,"lo1":-89.0895,"lo2":-89.0444,"dy":0.0017,"dx":0.0017,"nx":28,"ny":28,"refTime":"2025-07-06T21:00:00:Z","depth":0,"parameterNumber":2,"parameterNumberName":"U-component_of_WINDS"},"data":[0,0,0,0,0,0,0,0,0,0,0,0,0,0,0,0,0,0,0,0,0,0,0,0,0,0,0,0,0,0,0,0,0,0,0,0,0,0,0,0,0,0,0,0,0,0,0,0,0,0,0,0,0,0,0,0,0,0,3.9625,3.9626,0,3.9656,3.9656,3.9657,3.9536,3.9532,3.9529,3.9525,3.9558,3.9562,3.9566,0,0,0,0,0,0,0,0,0,0,0,0,0,3.9462,3.9466,3.9625,3.9626,3.9626,3.9656,3.9656,3.9657,3.9537,3.9532,3.9528,3.9524,3.9557,3.9562,3.9567,0,0,0,0,0,0,0,0,0,0,0,0,0,3.9517,3.9467,3.9625,3.957,3.9565,3.9656,3.9656,3.9657,3.9537,3.9532,3.9527,3.9522,3.9555,3.9561,3.9568,3.9714,0,0,3.9587,3.959,0,0,0,0,0,0,0,0,3.9514,3.9523,3.9577,3.9574,3.9568,3.9586,3.9611,3.9676,3.9539,3.9548,3.9525,3.9519,3.9572,3.9577,3.9594,3.9715,3.9717,3.9587,3.9591,3.9594,3.9596,0,0,0,0,0,0,0,3.951,3.9521,3.9637,3.9578,3.9573,3.9543,3.9545,3.9622,3.959,3.9547,3.9538,3.9543,3.9569,3.9588,3.9594,3.9717,3.9587,3.9593,3.9597,3.9599,3.9956,3.9962,0,0,0,0,0,0,3.9514,3.9519,3.9636,3.9638,3.9527,3.955,3.9552,3.9586,3.9589,3.9584,3.9548,3.9537,3.958,3.9587,3.9595,3.9763,3.9594,3.96,3.9603,3.9951,3.9957,3.9964,0,0,0,0,0,0,3.9511,3.9525,3.9635,3.9576,3.9588,3.9559,3.9598,3.959,3.9609,3.9589,3.9583,3.9574,3.9576,3.9586,3.9684,3.9763,3.9603,3.9608,3.9944,3.9953,3.9961,4.0103,0,0,0,0,0,0,3.9507,3.9525,3.9581,3.9578,3.9591,3.9725,3.9603,3.9594,3.962,3.9607,3.9612,3.9608,3.9573,3.9675,3.969,3.9768,3.9613,3.9937,3.9948,3.9958,4.0091,4.0115,4.0136,0,0,0,0,0,3.9501,3.9621,3.9584,3.9599,3.966,3.9729,3.9737,3.9694,3.9627,3.9682,3.9669,3.9608,3.9752,3.9687,3.9702,3.9784,3.9931,3.9945,3.9957,4.0081,4.0111,4.0136,0,0,0,0,0,0,3.9634,3.9619,3.9579,3.9701,3.9717,3.9709,3.9777,3.9727,3.9763,3.9749,3.9694,3.9696,3.9804,3.9804,3.9731,3.9923,3.983,3.9847,3.9919,3.9947,3.9969,3.9966,3.9619,0,0,0,0,0,3.9678,3.9735,3.9719,3.9828,3.9838,3.9807,3.9835,3.98,3.9815,3.9822,3.9816,3.9833,3.9881,3.9915,3.9959,4.0091,4.0089,4.0155,4.0177,4.0196,4.021,4.0277,4.0305,4.0006,4.0006,4.0005,0,0,3.9768,3.9767,3.9807,3.9855,3.9863,3.9923,3.9813,3.9882,3.9925,3.9832,3.9923,3.992,3.9935,4.005,4.0101,4.0054,4.0292,4.0212,4.0227,4.0231,4.0293,4.0321,4.0346,4.0014,4.0013,4.0011,0,0,3.9962,3.9969,4.0059,4.0069,4.0083,4.006,4.0082,4.0081,4.0075,4.0166,4.0096,4.0147,4.0233,4.0245,4.0263,4.0461,4.0405,4.0477,4.0594,4.0659,4.0683,4.0703,4.0771,4.0796,4.0492,4.0492,4.0492,0,4.0073,4.016,4.0112,4.0184,4.0206,4.0124,4.0213,4.0226,4.0254,4.0271,4.0218,4.0322,4.0327,4.0442,4.049,4.0508,4.053,4.0475,4.0684,4.0704,4.0722,4.0786,4.0811,4.0501,4.05,4.0499,4.0498,0,4.0294,4.0355,4.0426,4.0453,4.0484,4.0565,4.0528,4.0565,4.0528,4.0511,4.0603,4.0606,4.0647,4.0672,4.0638,4.0782,4.0752,4.0693,4.0597,4.076,4.0818,4.0843,4.0513,4.051,4.0507,4.0505,0,0,4.0572,4.057,4.0597,4.0606,4.0615,4.0661,4.0738,4.0778,4.0809,4.0831,4.0893,4.0967,4.091,4.0931,4.0896,4.0955,4.1107,4.0887,4.0886,4.0925,4.1263,4.1305,4.1334,4.1071,4.1075,4.1079,4.126,0,4.076,4.089,4.0847,4.0979,4.1033,4.0955,4.1022,4.1034,4.102,4.1064,4.1049,4.1101,4.1025,4.1036,4.1091,4.1077,4.1173,4.1063,4.1125,4.1128,4.1121,4.1366,4.1411,4.1583,4.1283,4.1287,4.129,0,4.0997,4.1026,4.1162,4.1158,4.1179,4.124,4.1271,4.1315,4.1327,4.1313,4.1335,4.1287,4.1361,4.1268,4.1368,4.1294,4.1317,4.1314,4.1319,4.1321,4.1217,4.1371,4.1637,4.1661,4.1326,4.1323,4.1321,0,4.1181,4.1256,4.1345,4.1357,4.1356,4.14,4.1401,4.1408,4.1433,4.1461,4.1477,4.1514,4.1534,4.1563,4.1527,4.1463,4.1631,4.1535,4.162,4.1621,4.1656,4.1654,4.1926,4.1677,4.1677,4.1676,4.1676,0,4.1394,4.148,4.1428,4.1483,4.1576,4.1527,4.1621,4.1614,4.162,4.1671,4.1608,4.1658,4.1608,4.1653,4.1626,4.1711,4.1721,4.171,4.1701,4.1714,4.1715,4.1726,4.1712,4.1683,4.1682,4.168,4.1679,0,4.1615,4.1585,4.1677,4.1668,4.1667,4.1736,4.1728,4.1778,4.176,4.1826,4.1839,4.181,4.186,4.1827,4.1878,4.1859,4.1969,4.1946,4.1965,4.1957,4.2042,4.2033,4.2328,4.2363,4.2095,4.2098,4.21,0,4.1751,4.1815,4.1812,4.1841,4.1847,4.1896,4.1921,4.1875,4.1904,4.1921,4.1968,4.2013,4.2045,4.2128,4.2111,4.2149,4.2124,4.2225,4.2129,4.2139,4.2121,4.2116,4.2121,4.2243,4.2246,4.2249,4.2251,0,4.1995,4.1976,4.2014,4.2047,4.2078,4.2102,4.2121,4.2149,4.2103,4.2138,4.2188,4.2213,4.2263,4.2307,4.2338,4.2339,4.2287,4.2282,4.2302,4.2315,4.2322,4.2315,4.2014,4.2275,4.2272,4.227,4.2269,4.2268,4.2175,4.2226,4.2231,4.2275,4.2285,4.2303,4.2349,4.2335,4.2375,4.2412,4.2383,4.2441,4.2449,4.2485,4.2493,4.2537,4.2496,4.2527,4.2534,4.2542,4.2552,4.2318,4.2543,4.2543,4.2542,4.2541,4.2541,0,4.2412,4.2411,4.2452,4.2479,4.2513,4.2461,4.2479,4.2511,4.2563,4.2574,4.2607,4.2663,4.2704,4.2691,4.2728,4.2766,4.2742,4.2777,4.2772,4.2772,4.2589,4.2565,4.2794,4.2794,4.2794,4.2794,4.2794,4.2794,4.2539,4.2622,4.2603,4.269,4.2688,4.2744,4.2758,4.2774,4.2783,4.2847,4.2881,4.2872,4.2873,4.2909,4.2944,4.2939,4.2954,4.2996,4.2983,4.2811,4.2786,4.2762,4.2739,4.3001,4.3001,4.3162,4.3163,4.3164]},{"header":{"parameterUnit":"m.s-1","parameterCategory":1,"la1":30.2991,"la2":30.254,"lo1":-89.0895,"lo2":-89.0444,"dy":0.0017,"dx":0.0017,"nx":28,"ny":28,"refTime":"2025-07-06T21:00:00:Z","depth":0,"parameterNumber":3,"parameterNumberName":"V-component_of_WINDS"},"data":[0,0,0,0,0,0,0,0,0,0,0,0,0,0,0,0,0,0,0,0,0,0,0,0,0,0,0,0,0,0,0,0,0,0,0,0,0,0,0,0,0,0,0,0,0,0,0,0,0,0,0,0,0,0,0,0,0,0,1.5462,1.5464,0,1.5665,1.5668,1.567,1.5758,1.5757,1.5757,1.5757,1.5967,1.5973,1.5979,0,0,0,0,0,0,0,0,0,0,0,0,0,1.5151,1.5156,1.5462,1.5465,1.5467,1.5665,1.5668,1.5671,1.5758,1.5757,1.5757,1.5757,1.5965,1.5972,1.5979,0,0,0,0,0,0,0,0,0,0,0,0,0,1.5313,1.5158,1.5462,1.5534,1.5543,1.5664,1.5668,1.5671,1.5758,1.5757,1.5757,1.5756,1.5963,1.5971,1.598,1.6045,0,0,1.6007,1.6011,0,0,0,0,0,0,0,0,1.5304,1.5325,1.5521,1.553,1.5539,1.5686,1.5635,1.5797,1.5758,1.5676,1.5757,1.5756,1.5874,1.589,1.5929,1.6055,1.6064,1.6008,1.6013,1.6017,1.602,0,0,0,0,0,0,0,1.5293,1.5317,1.5543,1.5524,1.5535,1.5558,1.558,1.5666,1.5776,1.5683,1.569,1.5713,1.5879,1.5921,1.5935,1.6067,1.6008,1.6016,1.6021,1.6025,1.6255,1.6256,0,0,0,0,0,0,1.5269,1.5307,1.5536,1.5549,1.5418,1.5563,1.5589,1.5639,1.5775,1.5795,1.5713,1.5716,1.5906,1.5925,1.5943,1.6028,1.6017,1.6025,1.6031,1.6255,1.6256,1.6256,0,0,0,0,0,0,1.5262,1.5289,1.5528,1.543,1.5462,1.5569,1.5625,1.5644,1.5685,1.5797,1.5817,1.5736,1.5906,1.593,1.6019,1.6036,1.6029,1.6037,1.6254,1.6255,1.6256,1.6197,0,0,0,0,0,0,1.5253,1.5286,1.5311,1.5429,1.5467,1.56,1.5627,1.5648,1.57,1.5706,1.5824,1.5843,1.5908,1.6005,1.6027,1.6048,1.6044,1.6253,1.6254,1.6256,1.6198,1.6196,1.6195,0,0,0,0,0,1.5242,1.5287,1.5312,1.5339,1.5501,1.5601,1.5622,1.5695,1.5701,1.5728,1.58,1.5839,1.603,1.6013,1.6039,1.6063,1.6252,1.6254,1.6256,1.6199,1.6197,1.6195,0,0,0,0,0,0,1.517,1.5304,1.5333,1.5418,1.5497,1.5615,1.5651,1.569,1.577,1.5772,1.586,1.5886,1.5966,1.6024,1.6002,1.6133,1.6144,1.6151,1.6092,1.6091,1.6089,1.6074,1.6052,0,0,0,0,0,1.5163,1.5233,1.5347,1.5411,1.5449,1.5543,1.5589,1.5639,1.5724,1.5758,1.5837,1.5919,1.5997,1.6047,1.6126,1.6206,1.6233,1.6235,1.6234,1.6232,1.6237,1.6283,1.6286,1.6262,1.6262,1.6262,0,0,1.5152,1.5234,1.5273,1.5399,1.5466,1.5536,1.5571,1.5644,1.5697,1.577,1.5858,1.5918,1.6015,1.61,1.6141,1.615,1.6249,1.6234,1.6232,1.6238,1.6286,1.6288,1.6289,1.6264,1.6263,1.6263,0,0,1.5167,1.5236,1.5297,1.5362,1.5463,1.5525,1.5539,1.5651,1.5694,1.5783,1.5839,1.5903,1.6037,1.6104,1.6155,1.6194,1.6233,1.6217,1.6208,1.6253,1.6254,1.6256,1.627,1.6274,1.6222,1.6222,1.6222,0,1.514,1.5248,1.5323,1.5393,1.5447,1.5514,1.5577,1.5637,1.5758,1.5794,1.5802,1.597,1.6041,1.6142,1.6151,1.619,1.621,1.6204,1.6248,1.6251,1.6254,1.6268,1.6273,1.6219,1.6219,1.622,1.622,0,1.521,1.5283,1.532,1.5434,1.5492,1.5558,1.5643,1.5693,1.5737,1.5798,1.5888,1.5974,1.6071,1.6099,1.6143,1.6206,1.6208,1.6231,1.6245,1.6252,1.6267,1.6273,1.6215,1.6216,1.6217,1.6218,0,0,1.5186,1.534,1.5352,1.5404,1.5519,1.5578,1.5646,1.574,1.5781,1.5862,1.5922,1.6033,1.6054,1.6112,1.6164,1.6203,1.6227,1.6221,1.6225,1.6219,1.6302,1.6284,1.6289,1.6254,1.6255,1.6256,1.6294,0,1.5217,1.5342,1.5411,1.5507,1.5576,1.564,1.57,1.5777,1.5836,1.5903,1.5969,1.6046,1.6068,1.6103,1.6145,1.6215,1.6245,1.6214,1.6311,1.6313,1.6284,1.6297,1.6279,1.6311,1.63,1.6301,1.6302,0,1.5269,1.5348,1.545,1.5556,1.5588,1.564,1.5731,1.5795,1.5884,1.5924,1.5987,1.6039,1.6114,1.6121,1.6226,1.6202,1.6246,1.6287,1.629,1.6302,1.6308,1.631,1.6322,1.6327,1.6312,1.6311,1.631,0,1.5241,1.5373,1.5451,1.5494,1.562,1.5655,1.5709,1.5797,1.5849,1.5929,1.5963,1.6051,1.6099,1.6165,1.6239,1.6237,1.6336,1.635,1.6372,1.637,1.639,1.6388,1.641,1.6418,1.6417,1.6417,1.6417,0,1.5268,1.5328,1.544,1.5488,1.5557,1.5636,1.5703,1.5763,1.584,1.5901,1.5963,1.6019,1.6112,1.618,1.6238,1.6316,1.6337,1.6372,1.6387,1.6367,1.6362,1.6397,1.6397,1.6419,1.6418,1.6418,1.6418,0,1.5249,1.5326,1.5416,1.5527,1.5556,1.5602,1.5698,1.5748,1.5809,1.5885,1.5908,1.6004,1.6087,1.6167,1.6278,1.6317,1.6395,1.6414,1.6364,1.6373,1.639,1.6387,1.6436,1.6446,1.6445,1.6445,1.6445,0,1.5261,1.5309,1.5425,1.5469,1.5522,1.5594,1.5646,1.5726,1.5778,1.5882,1.5919,1.6006,1.608,1.621,1.629,1.6375,1.6398,1.6408,1.6411,1.6389,1.6398,1.6394,1.6399,1.6407,1.6406,1.6406,1.6406,0,1.5275,1.531,1.5383,1.5469,1.553,1.5602,1.5676,1.5709,1.5803,1.5859,1.5944,1.6001,1.6114,1.62,1.6294,1.6351,1.6394,1.6404,1.6414,1.6394,1.6363,1.638,1.6359,1.6403,1.6403,1.6403,1.6403,1.6404,1.5272,1.5317,1.5405,1.5484,1.5548,1.5615,1.5667,1.5734,1.5806,1.5904,1.5946,1.6032,1.6119,1.625,1.6306,1.6375,1.6385,1.6399,1.6403,1.6405,1.6401,1.6351,1.6392,1.6392,1.6393,1.6393,1.6393,0,1.5289,1.5348,1.542,1.5521,1.5583,1.5617,1.57,1.575,1.5825,1.5902,1.5973,1.607,1.6154,1.624,1.6328,1.6366,1.6388,1.6387,1.6385,1.6398,1.6386,1.6369,1.6368,1.6368,1.6368,1.6368,1.6368,1.6368,1.5305,1.5382,1.5428,1.5538,1.5598,1.5681,1.5726,1.5788,1.5851,1.5956,1.6025,1.608,1.6162,1.6256,1.6334,1.6357,1.6387,1.638,1.6409,1.6397,1.6398,1.64,1.6384,1.6386,1.6386,1.6415,1.6415,1.6415]}]]